Terminal Aerodrome Forecast
Issued by NWS Mt. Holly, NJ

Home | Current Version | Previous Version | Text Only | Print | Product List | Glossary On
Versions: 1 2 3 4 5 6 7 8 9 10 11 12 13 14 15 16 17 18 19 20 21 22 23 24 25
000
FTUS41 KPHI 241737
TAFILG
TAF
KILG 241737Z 2418/2518 33018G25KT P6SM -RA BKN025 OVC045
      TEMPO 2418/2421 SCT025 BKN045
     FM242300 31018G28KT P6SM BKN035 BKN080
     FM250900 31012G20KT P6SM OVC025=

USA.gov is the U.S. government's official web portal to all federal, state and local government web resources and services.